Weather History for KRCA - August, 2014

Change the Weather History Date:

Thursday, August 28, 2014

  Actual Average Record
Temperature  
Mean Temperature 68 °F -  
Max Temperature 77 °F 83 °F 98 °F (2012)
Min Temperature 61 °F 57 °F 53 °F (2005)
Cooling Degree Days 4    
Growing Degree Days 18 (Base 50)    
Moisture  
Dew Point 59 °F    
Average Humidity 75    
Maximum Humidity 97    
Minimum Humidity 45    
Precipitation  
Precipitation 0.00 in - - ()
Sea Level Pressure  
Sea Level Pressure 29.93 in    
Wind  
Wind Speed 4 mph (West)    
Max Wind Speed 6 mph    
Max Gust Speed -    
Visibility 10 miles    
Events      
Averages and records for this station are not official NWS values.
T = Trace of Precipitation, MM = Missing Value Source: NWS Daily Summary

Daily Weather History Graph

Daily Weather History Graph

Search for Another Location

Airport or City:

Trip Planner

Search our weather history database for the weather conditions in past years. The results will help you decide how hot, cold, wet, or windy it might be!

Date:

Astronomy

Aug. 28, 2014 Rise Set
Actual Time 6:10 AM MDT 7:35 PM MDT
Civil Twilight 5:40 AM MDT 8:05 PM MDT
Nautical Twilight 5:04 AM MDT 8:41 PM MDT
Astronomical Twilight 4:25 AM MDT 9:20 PM MDT
Moon 9:13 AM MDT 8:51 PM MDT
Length of Visible Light 14h 24m
Length of Day
13h 24m
Waxing Crescent, 9% of the Moon is Illuminated
Aug 28
Waxing Crescent
Sep 2
First Quarter
Sep 8
Full
Sep 15
Last Quarter
Sep 24
New

Hourly Weather History & Observations

Time (MDT) Temp. Dew Point Humidity Pressure Visibility Wind Dir Wind Speed Gust Speed Precip Events Conditions
12:58 AM 63.0 °F 61.0 °F 93% 29.97 in 10.0 mi North 3.5 mph - N/A   Overcast
1:58 AM 63.3 °F 61.0 °F 92% 29.96 in 10.0 mi North 3.5 mph - N/A   Overcast
2:58 AM 62.1 °F 61.0 °F 96% 29.96 in 10.0 mi NNE 3.5 mph - N/A   Overcast
3:58 AM 61.5 °F 60.8 °F 97% 29.96 in 10.0 mi NW 4.6 mph - N/A   Overcast
4:58 AM 61.2 °F 60.3 °F 97% 29.96 in 10.0 mi NNW 4.6 mph - N/A   Overcast
5:58 AM 61.3 °F 59.9 °F 95% 29.96 in 10.0 mi NW 2.3 mph - N/A   Overcast
6:58 AM 61.9 °F 59.9 °F 93% 29.95 in 10.0 mi WNW 3.5 mph - N/A   Overcast
7:58 AM 63.7 °F 60.4 °F 89% 29.97 in 10.0 mi NW 4.6 mph - N/A   Overcast
8:58 AM 65.1 °F 59.9 °F 83% 29.98 in 10.0 mi NW 2.3 mph - N/A   Clear
9:58 AM 67.3 °F 59.0 °F 75% 29.97 in 10.0 mi Variable 1.2 mph - N/A   Overcast
10:58 AM 69.8 °F 59.9 °F 71% 29.96 in 10.0 mi North 4.6 mph - N/A   Scattered Clouds
11:58 AM 72.3 °F 59.0 °F 63% 29.95 in 10.0 mi Variable 5.8 mph - N/A   Scattered Clouds
12:58 PM 75.2 °F 57.4 °F 54% 29.93 in 10.0 mi Variable 4.6 mph - N/A   Mostly Cloudy
1:58 PM 75.7 °F 53.2 °F 45% 29.92 in 10.0 mi NNW 3.5 mph - N/A   Overcast
2:58 PM 74.8 °F 57.4 °F 54% 29.91 in 10.0 mi South 2.3 mph - N/A   Mostly Cloudy
3:58 PM 75.7 °F 54.3 °F 47% 29.90 in 10.0 mi SE 3.5 mph - N/A   Clear
4:58 PM 76.3 °F 55.2 °F 48% 29.88 in 10.0 mi SW 5.8 mph - N/A   Clear
5:58 PM 74.5 °F 58.8 °F 58% 29.87 in 10.0 mi South 3.5 mph - N/A   Clear
6:58 PM 75.0 °F 57.0 °F 53% 29.87 in 10.0 mi South 3.5 mph - N/A   Clear
7:58 PM 69.4 °F 61.2 °F 75% 29.88 in 10.0 mi South 5.8 mph - N/A   Clear
8:58 PM 67.5 °F 60.4 °F 78% 29.89 in 10.0 mi South 2.3 mph - N/A   Clear
9:58 PM 65.7 °F 60.1 °F 82% 29.87 in 9.0 mi WSW 3.5 mph - N/A   Clear
10:58 PM 63.0 °F 59.7 °F 89% 29.89 in 9.0 mi Calm Calm - N/A   Clear
11:58 PM 62.8 °F 57.2 °F 82% 29.86 in 10.0 mi SW 2.3 mph - N/A   Clear